TimeMST,TemperatureF,Dew PointF,Humidity,Sea Level PressureIn,VisibilityMPH,Wind Direction,Wind SpeedMPH,Gust SpeedMPH,PrecipitationIn,Events,Conditions,WindDirDegrees,DateUTC
12:53 AM,-0.9,-8.0,72,30.15,10.0,West,5.8,-,N/A,,Mostly Cloudy,260,2013-01-15 07:53:00
1:53 AM,-0.9,-9.0,69,30.15,10.0,WNW,8.1,-,N/A,,Scattered Clouds,290,2013-01-15 08:53:00
2:53 AM,9.0,-8.0,46,30.10,7.0,West,6.9,-,N/A,,Overcast,260,2013-01-15 09:53:00
3:53 AM,12.0,-5.1,46,30.08,10.0,West,8.1,-,N/A,,Overcast,270,2013-01-15 10:53:00
4:53 AM,12.0,-0.9,56,30.09,10.0,Variable,4.6,-,N/A,,Overcast,0,2013-01-15 11:53:00
5:53 AM,12.9,1.9,62,30.10,10.0,West,8.1,-,N/A,,Overcast,270,2013-01-15 12:53:00
6:53 AM,14.0,7.0,74,30.11,10.0,West,12.7,20.7,N/A,,Overcast,260,2013-01-15 13:53:00
7:11 AM,12.2,6.8,79,29.84,10.0,WSW,6.9,-,N/A,,Overcast,250,2013-01-15 14:11:00
7:53 AM,14.0,9.0,80,30.12,10.0,West,9.2,-,N/A,,Overcast,260,2013-01-15 14:53:00
8:53 AM,17.1,12.0,81,30.13,10.0,Variable,6.9,-,N/A,,Overcast,0,2013-01-15 15:53:00
9:26 AM,19.4,12.2,74,29.87,10.0,Variable,6.9,-,N/A,,Overcast,0,2013-01-15 16:26:00
9:53 AM,21.0,14.0,74,30.11,10.0,West,9.2,20.7,N/A,,Overcast,270,2013-01-15 16:53:00
10:53 AM,26.1,17.1,69,30.09,10.0,WNW,10.4,24.2,N/A,,Scattered Clouds,290,2013-01-15 17:53:00
11:44 AM,28.4,19.4,69,29.85,10.0,West,12.7,16.1,N/A,,Mostly Cloudy,280,2013-01-15 18:44:00
11:53 AM,30.0,19.0,64,30.05,10.0,West,12.7,-,N/A,,Mostly Cloudy,270,2013-01-15 18:53:00
12:25 PM,30.2,17.6,60,29.84,10.0,West,13.8,-,N/A,,Mostly Cloudy,280,2013-01-15 19:25:00
12:53 PM,28.9,19.0,67,30.05,10.0,West,12.7,-,N/A,,Overcast,280,2013-01-15 19:53:00
1:02 PM,30.2,19.4,64,29.84,10.0,West,11.5,-,N/A,,Overcast,270,2013-01-15 20:02:00
1:53 PM,25.0,19.0,78,30.07,10.0,SW,8.1,19.6,N/A,,Overcast,220,2013-01-15 20:53:00
2:32 PM,24.8,17.6,74,29.84,10.0,WSW,8.1,19.6,N/A,,Scattered Clouds,240,2013-01-15 21:32:00
2:53 PM,28.9,19.9,69,30.03,10.0,West,13.8,18.4,N/A,,Mostly Cloudy,280,2013-01-15 21:53:00
3:53 PM,28.0,19.9,72,30.03,10.0,West,12.7,17.3,N/A,,Scattered Clouds,280,2013-01-15 22:53:00
4:12 PM,28.4,19.4,69,29.86,10.0,WNW,12.7,18.4,N/A,,Mostly Cloudy,290,2013-01-15 23:12:00
4:43 PM,28.4,21.2,74,29.88,10.0,WNW,9.2,23.0,N/A,,Scattered Clouds,300,2013-01-15 23:43:00
4:53 PM,28.0,19.9,72,30.04,10.0,WNW,11.5,20.7,N/A,,Mostly Cloudy,300,2013-01-15 23:53:00
5:53 PM,26.1,19.9,78,30.03,9.0,West,10.4,18.4,0.00,Snow,Light Snow,280,2013-01-16 00:53:00
6:53 PM,30.0,21.9,72,30.01,10.0,WNW,15.0,31.1,0.00,,Overcast,290,2013-01-16 01:53:00
7:53 PM,30.0,21.9,72,30.01,10.0,WNW,16.1,29.9,N/A,,Overcast,290,2013-01-16 02:53:00
8:53 PM,30.9,21.9,69,30.00,10.0,WNW,18.4,31.1,N/A,,Scattered Clouds,290,2013-01-16 03:53:00
9:53 PM,30.0,21.9,72,29.99,10.0,WNW,15.0,23.0,N/A,,Clear,290,2013-01-16 04:53:00
10:53 PM,30.0,21.9,72,29.98,10.0,WNW,18.4,32.2,N/A,,Clear,290,2013-01-16 05:53:00
11:53 PM,28.0,21.0,75,30.00,10.0,West,10.4,23.0,N/A,,Clear,260,2013-01-16 06:53:00